CW2285 Weather Reports


Display with metric or nautical units.
time (UTC)temp
F
wind
direction
speed
MPH
gust
MPH
rain 1hr
in
rain 24hr
in
rain mn
in
humidity
%
barometer
mb
20260906221503 84 276 4.0 9.0 0.00 0.07 0.07 63 1010.7
20260906221003 84 290 3.0 9.0 0.00 0.07 0.07 63 1010.9
20260906215003 84 282 6.0 10.0 0.00 0.07 0.07 63 1011.0
20260906213503 81 276 6.0 12.0 0.00 0.07 0.07 67 1011.3
20260906213003 81 276 7.0 12.0 0.00 0.07 0.07 67 1011.4
20260906212503 81 280 5.0 12.0 0.00 0.07 0.07 68 1011.5
20260906212003 80 287 6.0 13.0 0.00 0.07 0.07 68 1011.6
20260906211503 80 284 6.0 15.0 0.00 0.07 0.07 68 1011.6
20260906211003 80 288 8.0 14.0 0.00 0.07 0.07 68 1011.6
20260906210504 80 298 6.0 16.0 0.00 0.07 0.07 69 1011.6
20260906210004 80 288 6.0 13.0 0.00 0.07 0.07 70 1011.7
20260906205503 80 294 6.0 12.0 0.00 0.07 0.07 72 1012.0
20260906205002 79 304 6.0 13.0 0.01 0.07 0.07 73 1012.1
20260906204503 80 271 7.0 15.0 0.01 0.07 0.07 74 1012.1
20260906204003 80 292 4.0 14.0 0.01 0.07 0.07 74 1012.2
20260906203503 80 285 5.0 13.0 0.01 0.07 0.07 72 1012.2
20260906203003 80 285 7.0 12.0 0.02 0.07 0.07 71 1012.2
20260906202503 80 287 6.0 14.0 0.02 0.07 0.07 72 1012.1
20260906202004 80 294 8.0 12.0 0.02 0.07 0.07 72 1012.1
20260906201503 80 293 6.0 12.0 0.02 0.07 0.07 75 1012.1
20260906200502 79 277 5.0 8.0 0.02 0.07 0.07 77 1012.1
20260906200004 79 293 3.0 9.0 0.02 0.07 0.07 76 1012.1
20260906195503 79 277 4.0 10.0 0.03 0.07 0.07 76 1012.1
20260906195003 79 295 5.0 9.0 0.02 0.06 0.06 75 1012.1
20260906194503 79 291 6.0 13.0 0.02 0.06 0.06 73 1012.1
20260906194003 79 289 5.0 10.0 0.02 0.06 0.06 73 1012.1
20260906193503 79 288 5.0 12.0 0.02 0.06 0.06 72 1012.1
20260906193003 80 293 2.0 12.0 0.02 0.05 0.05 72 1012.1
20260906192503 80 312 3.0 10.0 0.02 0.05 0.05 72 1012.0
20260906192003 80 307 4.0 12.0 0.02 0.05 0.05 72 1012.0
20260906191503 80 299 5.0 10.0 0.02 0.05 0.05 73 1012.0
20260906191003 79 302 5.0 12.0 0.02 0.05 0.05 74 1011.9
20260906190503 79 304 7.0 13.0 0.02 0.05 0.05 73 1012.0
20260906190003 79 294 7.0 17.0 0.02 0.05 0.05 73 1011.9
20260906185503 79 288 6.0 13.0 0.01 0.04 0.04 73 1011.8
20260906185003 79 290 8.0 15.0 0.01 0.04 0.04 73 1011.6
20260906184503 79 283 6.0 12.0 0.01 0.04 0.04 74 1011.6
20260906183004 79 262 5.0 10.0 0.02 0.04 0.04 74 1011.6
20260906182504 80 269 5.0 10.0 0.01 0.03 0.03 72 1011.6
20260906182004 80 278 4.0 9.0 0.01 0.03 0.03 72 1011.5
20260906181003 81 272 4.0 10.0 0.01 0.03 0.03 69 1011.5
20260906180504 81 274 6.0 10.0 0.01 0.03 0.03 66 1011.5
20260906180004 81 272 5.0 12.0 0.01 0.03 0.03 66 1011.3
20260906175504 81 299 6.0 8.0 0.01 0.03 0.03 67 1011.1
20260906175004 81 269 3.0 8.0 0.01 0.03 0.03 69 1011.0
20260906174504 81 270 3.0 6.0 0.01 0.03 0.03 69 1011.0
20260906174004 81 283 3.0 8.0 0.00 0.02 0.02 69 1011.0
20260906173503 81 288 2.0 8.0 0.01 0.02 0.02 70 1011.0
20260906172504 80 250 5.0 12.0 0.02 0.02 0.02 71 1011.0
20260906171503 80 236 8.0 12.0 0.02 0.02 0.02 71 1010.9
20260906171004 80 228 8.0 12.0 0.02 0.02 0.02 72 1010.9
20260906170503 79 229 6.0 10.0 0.02 0.02 0.02 72 1010.9
20260906165503 79 241 5.0 7.0 0.02 0.02 0.02 72 1010.8
20260906164503 78 239 2.0 6.0 0.02 0.02 0.02 73 1010.8
20260906164004 79 252 2.0 3.0 0.02 0.02 0.02 70 1010.9
20260906163503 79 271 2.0 6.0 0.01 0.01 0.01 67 1010.9
20260906163004 80 308 2.0 9.0 0.01 0.01 0.01 63 1010.9
20260906162503 81 358 2.0 8.0 0.00 0.00 0.00 61 1010.8
20260906162003 81 262 4.0 9.0 0.00 0.00 0.00 61 1010.7
20260906161504 81 9 5.0 10.0 0.00 0.00 0.00 62 1010.5
20260906161004 82 350 1.0 5.0 0.00 0.00 0.00 60 1010.5
20260906160004 82 270 3.0 7.0 0.00 0.00 0.00 59 1010.4
20260906155004 82 326 1.0 3.0 0.00 0.00 0.00 64 1010.3
20260906154004 82 313 3.0 7.0 0.00 0.00 0.00 60 1010.0
20260906153503 82 286 1.0 3.0 0.00 0.00 0.00 60 1009.9
20260906153004 82 296 2.0 7.0 0.00 0.00 0.00 59 1009.9
20260906152504 82 290 3.0 6.0 0.00 0.00 0.00 59 1009.9
20260906151504 82 260 2.0 3.0 0.00 0.00 0.00 60 1010.0
20260906151003 82 278 2.0 5.0 0.00 0.00 0.00 60 1009.9
20260906150503 81 280 3.0 7.0 0.00 0.00 0.00 59 1009.9
20260906150004 82 319 2.0 5.0 0.00 0.00 0.00 59 1009.9
20260906145504 81 291 3.0 7.0 0.00 0.00 0.00 58 1009.7
20260906145004 81 289 3.0 8.0 0.00 0.00 0.00 59 1009.5
20260906144504 80 272 3.0 8.0 0.00 0.00 0.00 60 1009.5
20260906144003 80 289 4.0 9.0 0.00 0.00 0.00 62 1009.4
20260906143504 80 274 5.0 12.0 0.00 0.00 0.00 63 1009.4
20260906143004 80 268 6.0 12.0 0.00 0.00 0.00 63 1009.3
20260906142503 80 270 6.0 12.0 0.00 0.00 0.00 64 1009.2
20260906142004 79 257 3.0 9.0 0.00 0.00 0.00 65 1009.0
20260906141504 79 263 1.0 6.0 0.00 0.00 0.00 63 1009.0
20260906141003 79 246 3.0 7.0 0.00 0.00 0.00 64 1008.9
20260906140504 79 238 4.0 8.0 0.00 0.00 0.00 63 1008.9
20260906140004 79 244 3.0 6.0 0.00 0.00 0.00 63 1008.8
20260906135503 79 251 3.0 7.0 0.00 0.00 0.00 63 1008.7
20260906135003 80 256 3.0 6.0 0.00 0.00 0.00 62 1008.5
20260906134504 80 254 2.0 5.0 0.00 0.00 0.00 61 1008.4
20260906134003 80 265 3.0 6.0 0.00 0.00 0.00 61 1008.4
20260906133004 80 232 4.0 6.0 0.00 0.00 0.00 63 1008.5
20260906132504 80 245 0.0 3.0 0.00 0.00 0.00 63 1008.5
20260906132004 80 245 0.0 0.0 0.00 0.00 0.00 62 1008.7
20260906131504 80 244 1.0 2.0 0.00 0.00 0.00 64 1008.8
20260906131003 79 346 1.0 3.0 0.00 0.00 0.00 64 1008.7
20260906130504 79 322 3.0 6.0 0.00 0.00 0.00 64 1008.6
20260906130004 78 336 3.0 6.0 0.00 0.00 0.00 65 1008.5
20260906125503 78 343 6.0 10.0 0.00 0.00 0.00 65 1008.4
20260906125002 79 331 5.0 9.0 0.00 0.00 0.00 65 1008.4
20260906124502 79 316 2.0 7.0 0.00 0.00 0.00 65 1008.4
20260906124002 80 247 1.0 5.0 0.00 0.00 0.00 64 1008.6
20260906123502 80 300 1.0 3.0 0.00 0.00 0.00 63 1008.6
20260906123002 81 284 2.0 7.0 0.00 0.00 0.00 60 1008.6
20260906122503 81 308 2.0 5.0 0.00 0.00 0.00 60 1008.4
20260906122002 81 337 1.0 6.0 0.00 0.00 0.00 59 1008.5
20260906121502 83 321 5.0 8.0 0.00 0.00 0.00 56 1008.4
20260906120502 83 314 1.0 3.0 0.00 0.00 0.00 54 1008.4
20260906115502 82 272 0.0 1.0 0.00 0.00 0.00 53 1008.4
20260906115002 83 272 0.0 0.0 0.00 0.00 0.00 54 1008.4
20260906114002 84 260 1.0 3.0 0.00 0.00 0.00 49 1008.3
20260906113502 84 239 2.0 5.0 0.00 0.00 0.00 47 1008.3
20260906113002 84 282 0.0 3.0 0.00 0.00 0.00 44 1008.2
20260906112002 85 333 0.0 0.0 0.00 0.00 0.00 44 1008.1
20260906111501 84 333 1.0 5.0 0.00 0.00 0.00 43 1007.9
20260906105503 84 230 1.0 3.0 0.00 0.00 0.00 46 1007.8
20260906105002 85 230 0.0 1.0 0.00 0.00 0.00 45 1007.8
20260906104502 85 230 2.0 3.0 0.00 0.00 0.00 43 1007.8
20260906104002 85 277 1.0 6.0 0.00 0.00 0.00 43 1007.8
20260906103502 85 297 1.0 5.0 0.00 0.00 0.00 44 1007.8
20260906102502 86 295 3.0 8.0 0.00 0.00 0.00 41 1007.6
20260906102002 86 294 3.0 7.0 0.00 0.00 0.00 40 1007.5
20260906101502 86 287 3.0 8.0 0.00 0.00 0.00 40 1007.5
20260906101002 86 304 5.0 10.0 0.00 0.00 0.00 40 1007.4
20260906100002 87 300 2.0 7.0 0.00 0.00 0.00 39 1007.4
20260906095502 87 273 3.0 8.0 0.00 0.00 0.00 40 1007.4
20260906094502 87 307 2.0 6.0 0.00 0.00 0.00 40 1007.4
20260906093502 87 298 2.0 8.0 0.00 0.00 0.00 39 1007.5
20260906093002 87 292 5.0 9.0 0.00 0.00 0.00 39 1007.7
20260906092002 89 290 3.0 7.0 0.00 0.00 0.00 38 1007.8
20260906091502 90 269 2.0 6.0 0.00 0.00 0.00 34 1007.8
20260906091002 90 276 2.0 5.0 0.00 0.00 0.00 31 1007.8
20260906090502 90 298 2.0 6.0 0.00 0.00 0.00 31 1007.7
20260906090002 90 300 2.0 5.0 0.00 0.00 0.00 31 1007.6
20260906085002 89 293 2.0 5.0 0.00 0.00 0.00 32 1007.6
20260906084502 89 318 1.0 3.0 0.00 0.00 0.00 32 1007.6
20260906084002 89 327 0.0 3.0 0.00 0.00 0.00 32 1007.7
20260906083502 89 277 0.0 3.0 0.00 0.00 0.00 32 1007.6
20260906082502 90 305 0.0 3.0 0.00 0.00 0.00 32 1007.7
20260906082002 90 306 2.0 8.0 0.00 0.00 0.00 31 1007.8
20260906081502 90 318 2.0 6.0 0.00 0.00 0.00 31 1007.8
20260906081002 90 304 1.0 6.0 0.00 0.00 0.00 31 1007.8
20260906080501 90 291 2.0 5.0 0.00 0.00 0.00 31 1007.8
20260906080002 90 303 2.0 5.0 0.00 0.00 0.00 30 1007.8
20260906075502 90 277 2.0 7.0 0.00 0.00 0.00 30 1007.8
20260906075001 90 297 1.0 5.0 0.00 0.00 0.00 30 1007.7
20260906074503 90 293 2.0 7.0 0.00 0.00 0.00 30 1007.6
20260906074002 90 291 2.0 8.0 0.00 0.00 0.00 30 1007.6
20260906073502 90 303 2.0 7.0 0.00 0.00 0.00 30 1007.5
20260906073002 90 307 3.0 9.0 0.00 0.00 0.00 30 1007.7
20260906072002 90 317 3.0 7.0 0.00 0.00 0.00 29 1007.4
20260906071502 90 304 3.0 8.0 0.00 0.00 0.00 29 1007.4
20260906070502 91 299 3.0 10.0 0.00 0.00 0.00 29 1007.4
20260906065503 90 294 4.0 8.0 0.00 0.00 0.00 29 1007.2
20260906064502 90 284 2.0 7.0 0.00 0.00 0.00 29 1007.2
20260906064002 90 295 2.0 5.0 0.00 0.00 0.00 29 1007.2
20260906063502 91 316 1.0 5.0 0.00 0.00 0.00 29 1007.2
20260906063002 91 297 2.0 5.0 0.00 0.00 0.00 29 1007.3
20260906062502 91 291 1.0 6.0 0.00 0.00 0.00 29 1007.3
20260906062002 91 299 2.0 8.0 0.00 0.00 0.00 29 1007.4
20260906061502 91 297 3.0 8.0 0.00 0.00 0.00 29 1007.4
20260906061002 91 292 2.0 9.0 0.00 0.00 0.00 30 1007.4
20260906060502 91 305 3.0 7.0 0.00 0.00 0.00 30 1007.3
20260906055502 91 328 2.0 3.0 0.00 0.00 0.00 29 1007.3
20260906055002 91 311 2.0 3.0 0.00 0.00 0.00 29 1007.3
20260906054501 91 306 3.0 9.0 0.00 0.00 0.00 29 1007.3
20260906054001 91 291 2.0 7.0 0.00 0.00 0.00 29 1007.3
20260906053502 91 298 3.0 6.0 0.00 0.00 0.00 29 1007.2
20260906052503 91 317 3.0 7.0 0.00 0.00 0.00 28 1007.2
20260906052002 91 322 3.0 5.0 0.00 0.00 0.00 28 1007.1
20260906051002 91 324 2.0 8.0 0.00 0.00 0.00 28 1007.3
20260906050502 92 327 2.0 7.0 0.00 0.00 0.00 28 1007.3
20260906050002 92 325 2.0 5.0 0.00 0.00 0.00 28 1007.4
20260906045502 92 309 3.0 9.0 0.00 0.00 0.00 28 1007.4
20260906045002 92 306 3.0 10.0 0.00 0.00 0.00 28 1007.3
20260906044002 92 306 3.0 8.0 0.00 0.00 0.00 28 1007.3
20260906043502 92 302 3.0 9.0 0.00 0.00 0.00 27 1007.3
20260906043002 92 318 3.0 10.0 0.00 0.00 0.00 28 1007.3
20260906042001 92 294 3.0 9.0 0.00 0.00 0.00 28 1007.3
20260906041002 92 291 3.0 7.0 0.00 0.00 0.00 28 1007.1
20260906040502 93 283 3.0 8.0 0.00 0.00 0.00 28 1007.1
20260906040002 93 305 3.0 8.0 0.00 0.00 0.00 28 1007.0
20260906035503 93 308 3.0 10.0 0.00 0.00 0.00 29 1006.8
20260906035002 93 287 2.0 7.0 0.00 0.00 0.00 28 1006.8
20260906034501 93 311 2.0 7.0 0.00 0.00 0.00 28 1006.8
20260906034002 93 301 5.0 10.0 0.00 0.00 0.00 28 1006.7
20260906033502 93 321 3.0 10.0 0.00 0.00 0.00 28 1006.6
20260906033002 93 299 3.0 12.0 0.00 0.00 0.00 28 1006.7
20260906032502 93 315 2.0 5.0 0.00 0.00 0.00 28 1006.7
20260906031502 93 283 1.0 9.0 0.00 0.00 0.00 28 1006.6
20260906031002 94 11 3.0 6.0 0.00 0.00 0.00 25 1006.6
20260906030502 94 104 3.0 9.0 0.00 0.00 0.00 24 1006.5
20260906030002 94 63 1.0 6.0 0.00 0.00 0.00 22 1006.5
20260906025502 94 73 4.0 7.0 0.00 0.00 0.00 22 1006.5
20260906024002 95 91 0.0 1.0 0.00 0.00 0.00 21 1006.4
20260906023502 95 90 0.0 3.0 0.00 0.00 0.00 22 1006.4
20260906023002 95 64 2.0 3.0 0.00 0.00 0.00 21 1006.3
20260906022501 95 55 2.0 5.0 0.00 0.00 0.00 21 1006.3
20260906022002 95 95 2.0 5.0 0.00 0.00 0.00 21 1006.3
20260906021502 95 73 4.0 7.0 0.00 0.00 0.00 21 1006.3
20260906021002 95 78 5.0 8.0 0.00 0.00 0.00 21 1006.3
20260906020502 96 48 2.0 3.0 0.00 0.00 0.00 21 1006.3
20260906020002 96 41 3.0 5.0 0.00 0.00 0.00 21 1006.3
20260906015502 96 78 2.0 5.0 0.00 0.00 0.00 21 1006.3
20260906015003 96 71 3.0 7.0 0.00 0.00 0.00 20 1006.3
20260906013502 98 286 2.0 5.0 0.00 0.00 0.00 23 1006.3
20260906013002 98 83 2.0 7.0 0.00 0.00 0.00 20 1006.3
20260906012502 98 105 3.0 8.0 0.00 0.00 0.00 18 1006.4
20260906012002 98 104 4.0 7.0 0.00 0.00 0.00 18 1006.4
20260906011502 98 112 5.0 7.0 0.00 0.00 0.00 18 1006.5
20260906011002 99 145 2.0 6.0 0.00 0.00 0.00 18 1006.4
20260906010502 99 95 4.0 7.0 0.00 0.00 0.00 18 1006.4
20260906010002 99 104 4.0 7.0 0.00 0.00 0.00 18 1006.5
20260906005503 99 113 5.0 8.0 0.00 0.00 0.00 17 1006.5
20260906005002 99 105 5.0 8.0 0.00 0.00 0.00 17 1006.4
20260906004502 98 101 4.0 10.0 0.00 0.00 0.00 17 1006.5
20260906004002 99 140 4.0 8.0 0.00 0.00 0.00 17 1006.4
20260906003502 99 91 6.0 9.0 0.00 0.00 0.00 17 1006.3
20260906003002 99 103 5.0 8.0 0.00 0.00 0.00 18 1006.3
20260906002502 98 111 6.0 9.0 0.00 0.00 0.00 17 1006.4
20260906002002 99 105 7.0 10.0 0.00 0.00 0.00 17 1006.4
20260906001503 99 111 6.0 9.0 0.00 0.00 0.00 17 1006.5
20260906001001 98 131 3.0 8.0 0.00 0.00 0.00 17 1006.6
20260906000502 98 128 5.0 12.0 0.00 0.00 0.00 17 1006.6
20260905235503 97 144 5.0 10.0 0.00 0.00 0.00 17 1006.7
20260905235002 97 137 4.0 10.0 0.00 0.00 0.00 17 1006.8
20260905234502 98 142 4.0 8.0 0.00 0.00 0.00 17 1006.7
20260905232502 99 107 6.0 10.0 0.00 0.00 0.00 17 1006.9
20260905232002 99 110 5.0 8.0 0.00 0.00 0.00 16 1006.9
20260905231502 100 119 5.0 9.0 0.00 0.00 0.00 16 1006.9
20260905231002 99 112 5.0 8.0 0.00 0.00 0.00 16 1006.9
20260905230502 98 110 7.0 10.0 0.00 0.00 0.00 16 1006.9
20260905230002 98 125 6.0 10.0 0.00 0.00 0.00 16 1006.9
20260905225002 98 121 7.0 12.0 0.00 0.00 0.00 16 1007.0
20260905224502 99 127 8.0 14.0 0.00 0.00 0.00 16 1007.2
20260905224002 99 144 5.0 10.0 0.00 0.00 0.00 16 1007.2
20260905223502 99 126 5.0 9.0 0.00 0.00 0.00 16 1007.2
20260905223001 100 134 7.0 12.0 0.00 0.00 0.00 16 1007.3
20260905222501 101 105 6.0 10.0 0.00 0.00 0.00 15 1007.4